Weather History for Havre, MT

Change the Weather History Date:

Tuesday, September 24, 2013

  Actual Average Record
Temperature  
Mean Temperature 52 °F 53 °F  
Max Temperature 68 °F 68 °F 94 °F (2009)
Min Temperature 36 °F 39 °F 18 °F (1926)
Degree Days  
Heating Degree Days 13 12  
Month to date heating degree days 63 196  
Since 1 July heating degree days 81 279  
Cooling Degree Days 0 0  
Month to date cooling degree days 70 17  
Year to date cooling degree days 445 384  
Growing Degree Days 2 (Base 50)    
Moisture  
Dew Point 39 °F    
Average Humidity 61    
Maximum Humidity 93    
Minimum Humidity 29    
Precipitation  
Precipitation 0.57 in 0.03 in 2.30 in (1917)
Month to date precipitation 1.56 0.91  
Year to date precipitation 16.66 9.58  
Snow  
Snow 0.00 in 0.00 in 5.60 in (1917)
Month to date snowfall 0.0 0.1  
Since 1 July snowfall 0.0 0.1  
Since 1 September snowfall 0.0 0.1  
Snow Depth 0.00 in    
Sea Level Pressure  
Sea Level Pressure 29.80 in    
Wind  
Wind Speed 5 mph (West)    
Max Wind Speed 15 mph    
Max Gust Speed 25 mph    
Visibility 9 miles    
Events Rain    
T = Trace of Precipitation, MM = Missing Value Source: NWS Daily Summary

Daily Weather History Graph

Daily Weather History Graph

Search for Another Location

Airport:

Trip Planner

Search our weather history database for the weather conditions in past years. The results will help you decide how hot, cold, wet, or windy it might be!

Date:

Astronomy

Sep. 24, 2013 Rise Set
Actual Time 7:08 AM MDT 7:12 PM MDT
Civil Twilight 6:37 AM MDT 7:43 PM MDT
Nautical Twilight 6:00 AM MDT 8:19 PM MDT
Astronomical Twilight 5:22 AM MDT 8:57 PM MDT
Moon 10:07 PM MDT (9/24) 12:51 PM MDT (9/24)
Length of Visible Light 13h 05m
Length of Day
12h 03m
Waning Gibbous, 72% of the Moon is Illuminated
Sep 24
Waning Gibbous
Sep 26
Last Quarter
Oct 4
New
Oct 11
First Quarter
Oct 18
Full

Hourly Weather History & Observations

Time (MDT) Temp. Windchill Dew Point Humidity Pressure Visibility Wind Dir Wind Speed Gust Speed Precip Events Conditions
12:53 AM 44.1 °F 40.1 °F 33.1 °F 65% 29.86 in 10.0 mi WSW 6.9 mph - N/A   Clear
1:53 AM 45.0 °F 42.6 °F 32.0 °F 60% 29.86 in 10.0 mi West 4.6 mph - N/A   Clear
2:53 AM 37.9 °F 33.5 °F 30.9 °F 76% 29.87 in 10.0 mi NNW 5.8 mph - N/A   Clear
3:53 AM 39.0 °F 34.0 °F 32.0 °F 76% 29.87 in 10.0 mi WSW 6.9 mph - N/A   Clear
4:53 AM 42.1 °F 40.2 °F 32.0 °F 67% 29.88 in 10.0 mi WNW 3.5 mph - N/A   Clear
5:53 AM 37.0 °F - 30.9 °F 79% 29.88 in 10.0 mi Calm Calm - N/A   Clear
6:53 AM 39.0 °F 36.8 °F 32.0 °F 76% 29.89 in 10.0 mi WSW 3.5 mph - N/A   Clear
7:53 AM 39.0 °F 36.8 °F 33.1 °F 79% 29.89 in 10.0 mi West 3.5 mph - N/A   Clear
8:53 AM 48.9 °F - 37.0 °F 64% 29.89 in 10.0 mi West 4.6 mph - N/A   Clear
9:53 AM 59.0 °F - 35.1 °F 41% 29.86 in 10.0 mi SW 6.9 mph - N/A   Clear
10:53 AM 62.1 °F - 34.0 °F 35% 29.84 in 10.0 mi South 5.8 mph - N/A   Clear
11:53 AM 64.9 °F - 32.0 °F 29% 29.82 in 10.0 mi Variable 3.5 mph - N/A   Clear
12:53 PM 66.0 °F - 33.1 °F 29% 29.78 in 10.0 mi South 4.6 mph - N/A   Clear
1:53 PM 66.9 °F - 34.0 °F 30% 29.76 in 10.0 mi SSW 8.1 mph - N/A   Mostly Cloudy
2:53 PM 66.0 °F - 35.1 °F 32% 29.75 in 10.0 mi WSW 11.5 mph - N/A   Overcast
3:53 PM 64.9 °F - 36.0 °F 34% 29.74 in 10.0 mi WSW 8.1 mph - N/A   Overcast
4:53 PM 61.0 °F - 42.1 °F 50% 29.74 in 10.0 mi SSW 9.2 mph - 0.00 in Rain Light Rain
5:53 PM 55.0 °F - 46.9 °F 74% 29.76 in 10.0 mi NW 6.9 mph - 0.00 in Rain Light Rain
6:53 PM 54.0 °F - 48.0 °F 80% 29.75 in 8.0 mi Calm Calm - 0.01 in Rain Light Rain
7:53 PM 52.0 °F - 48.0 °F 86% 29.76 in 5.0 mi NNE 4.6 mph - 0.10 in Rain Heavy Rain
8:53 PM 50.0 °F - 48.0 °F 93% 29.75 in 5.0 mi East 8.1 mph - 0.12 in Rain Rain
9:30 PM 50.0 °F - 48.2 °F 94% 29.73 in 4.0 mi ENE 9.2 mph - 0.14 in Rain Heavy Rain
9:53 PM 50.0 °F - 48.0 °F 93% 29.73 in 7.0 mi ENE 8.1 mph - 0.21 in Rain Rain
10:53 PM 50.0 °F - 48.0 °F 93% 29.71 in 10.0 mi ENE 5.8 mph - 0.10 in Rain Light Rain
11:28 PM 50.0 °F - 48.2 °F 94% 29.72 in 10.0 mi Calm Calm - 0.01 in Rain Light Rain
11:41 PM 50.0 °F - 48.2 °F 94% 29.72 in 10.0 mi Calm Calm - 0.01 in Rain Light Rain
11:53 PM 50.0 °F - 48.9 °F 96% 29.70 in 10.0 mi Calm Calm - 0.02 in Rain Light Rain